FUNCUBE-1 (AO-73)

Last updated on Tue Jul 01 2025 00:03:06 GMT+0000 (Coordinated Universal Time)

1 39444U 13066AE 25181.52555205 .00004487 00000+0 33609-3 0 9992 2 39444 97.7803 143.5233 0041205 317.2904 42.5120 15.02561333626736
UTC large
Height (km)
Speed (km/s)
/
Latitude / Longitude
Inclination (degrees)
Orbital Period (minutes)
Azimuth
Elevation
Range (km)
Doppler Factor

Next 0 passes for location: London (51.5072 / 0.1276)

Sorry there are no passes over London.